User: anonymous
Location: Unspecified
(0.0000°N, 0.0000°E)
Time: 11:48:19
(UTC+02:00)
Language:

Orbus 21S - Orbit

View from above orbital plane
View from above orbital plane
View from above satellite
View from above satellite

Ground track
Ground track

The orbit data is extracted from the following two-line orbital elements,

1 20669U 90056C   14271.77186117  .00001819  00000-0  16036-2 0  3874
2 20669 024.1263 140.0340 7120447 032.1574 004.4585 02.44526783202924
Epoch (UTC): 28 September 2014 18:31:28
Eccentricity: 0.7120447
inclination: 24.1263°
perigee height: 323 km
apogee height: 33466 km
right ascension of ascending node: 140.0340°
argument of perigee: 32.1574°
revolutions per day: 2.44526783
mean anomaly at epoch: 4.4585°
orbit number at epoch: 20292

The dashed part of the orbit path shows where the satellite is in the earth's shadow,  

DLR